Weather History for Coleman, TX

Change the Weather History Date:

Wednesday, September 11, 2013

  Actual Average (KABI) Record (KABI)
Temperature  
Mean Temperature 80 °F 77 °F  
Max Temperature 93 °F 88 °F 105 °F (2000)
Min Temperature 68 °F 66 °F 49 °F (1959)
Degree Days  
Heating Degree Days 0 0  
Month to date heating degree days 0  
Since 1 July heating degree days 0  
Cooling Degree Days 15 12  
Month to date cooling degree days 150  
Year to date cooling degree days 2095  
Growing Degree Days 30 (Base 50)    
Moisture  
Dew Point 61 °F    
Average Humidity 60    
Maximum Humidity 93    
Minimum Humidity 24    
Precipitation  
Precipitation 0.00 in 0.08 in 2.49 in (1989)
Month to date precipitation 0.88  
Year to date precipitation 17.84  
Sea Level Pressure  
Sea Level Pressure 30.11 in    
Wind  
Wind Speed 5 mph (SE)    
Max Wind Speed 16 mph    
Max Gust Speed 21 mph    
Visibility 10 miles    
Events      
T = Trace of Precipitation, MM = Missing Value Source: NWS Daily Summary

Daily Weather History Graph

Daily Weather History Graph

Search for Another Location

Airport:

Trip Planner

Search our weather history database for the weather conditions in past years. The results will help you decide how hot, cold, wet, or windy it might be!

Date:

Astronomy

Sep. 11, 2013 Rise Set
Actual Time 7:19 AM CDT 7:48 PM CDT
Civil Twilight 6:54 AM CDT 8:12 PM CDT
Nautical Twilight 6:26 AM CDT 8:41 PM CDT
Astronomical Twilight 5:56 AM CDT 9:10 PM CDT
Moon 1:26 PM CDT (9/11) No Moon Set
Length of Visible Light 13h 18m
Length of Day
12h 29m
Waxing Crescent, 39% of the Moon is Illuminated
Sep 11
Waxing Crescent
Sep 12
First Quarter
Sep 19
Full
Sep 26
Last Quarter
Oct 4
New

Hourly Weather History & Observations

Time (CDT) Temp. Heat Index Dew Point Humidity Pressure Visibility Wind Dir Wind Speed Gust Speed Precip Events Conditions
12:15 AM 73.4 °F - 66.2 °F 78% 30.11 in 10.0 mi SSE 3.5 mph - N/A   Clear
12:35 AM 72.7 °F - 66.2 °F 80% 30.11 in 10.0 mi South 4.6 mph - N/A   Clear
12:55 AM 72.5 °F - 66.2 °F 81% 30.10 in 10.0 mi South 4.6 mph - N/A   Clear
1:15 AM 72.5 °F - 66.2 °F 81% 30.10 in 10.0 mi South 4.6 mph - N/A   Clear
1:35 AM 72.0 °F - 66.2 °F 82% 30.10 in 10.0 mi South 3.5 mph - N/A   Clear
1:55 AM 71.2 °F - 65.8 °F 83% 30.11 in 10.0 mi South 3.5 mph - N/A   Clear
2:15 AM 71.2 °F - 66.2 °F 84% 30.11 in 10.0 mi SSE 3.5 mph - N/A   Clear
2:35 AM 70.7 °F - 65.8 °F 85% 30.11 in 10.0 mi East 3.5 mph - N/A   Clear
2:55 AM 70.5 °F - 65.8 °F 85% 30.11 in 10.0 mi Calm Calm - N/A   Clear
3:15 AM 70.9 °F - 66.2 °F 85% 30.11 in 10.0 mi East 3.5 mph - N/A   Clear
3:35 AM 70.9 °F - 66.6 °F 86% 30.11 in 10.0 mi ESE 3.5 mph - N/A   Clear
3:55 AM 70.7 °F - 66.2 °F 86% 30.11 in 10.0 mi Calm Calm - N/A   Clear
4:15 AM 70.2 °F - 66.2 °F 87% 30.11 in 10.0 mi ESE 3.5 mph - N/A   Clear
4:35 AM 70.2 °F - 66.2 °F 87% 30.11 in 10.0 mi ESE 4.6 mph - N/A   Clear
4:55 AM 70.0 °F - 66.2 °F 88% 30.10 in 10.0 mi ESE 3.5 mph - N/A   Clear
5:15 AM 70.3 °F - 66.4 °F 87% 30.10 in 10.0 mi SE 3.5 mph - N/A   Clear
5:35 AM 70.0 °F - 66.2 °F 88% 30.10 in 10.0 mi SE 4.6 mph - N/A   Clear
5:55 AM 69.4 °F - 65.8 °F 88% 30.11 in 10.0 mi Calm Calm - N/A   Clear
6:15 AM 68.9 °F - 65.5 °F 89% 30.11 in 10.0 mi East 3.5 mph - N/A   Clear
6:35 AM 68.5 °F - 65.3 °F 89% 30.11 in 10.0 mi Calm Calm - N/A   Clear
6:55 AM 68.0 °F - 64.8 °F 89% 30.11 in 10.0 mi Calm Calm - N/A   Mostly Cloudy
7:15 AM 68.0 °F - 65.7 °F 92% 30.12 in 7.0 mi Calm Calm - N/A   Mostly Cloudy
7:35 AM 68.2 °F - 66.2 °F 93% 30.13 in 7.0 mi Calm Calm - N/A   Mostly Cloudy
7:55 AM 69.4 °F - 66.7 °F 91% 30.14 in 10.0 mi Calm Calm - N/A   Mostly Cloudy
8:15 AM 70.7 °F - 67.5 °F 89% 30.15 in 10.0 mi Calm Calm - N/A   Overcast
8:35 AM 71.8 °F - 68.0 °F 88% 30.15 in 10.0 mi Calm Calm - N/A   Mostly Cloudy
8:55 AM 73.2 °F - 68.7 °F 86% 30.16 in 10.0 mi South 6.9 mph - N/A   Overcast
9:15 AM 73.9 °F - 68.9 °F 84% 30.17 in 10.0 mi South 4.6 mph - N/A   Overcast
9:35 AM 74.5 °F - 68.5 °F 82% 30.17 in 10.0 mi South 8.1 mph - N/A   Overcast
9:55 AM 75.4 °F - 68.0 °F 78% 30.17 in 10.0 mi South 8.1 mph - N/A   Overcast
10:15 AM 76.5 °F - 68.2 °F 75% 30.17 in 10.0 mi South 8.1 mph - N/A   Overcast
10:35 AM 77.5 °F - 67.8 °F 72% 30.17 in 10.0 mi SSE 8.1 mph - N/A   Overcast
10:55 AM 78.1 °F - 67.5 °F 70% 30.18 in 10.0 mi South 6.9 mph - N/A   Overcast
11:15 AM 79.7 °F - 66.7 °F 64% 30.18 in 10.0 mi South 10.4 mph - N/A   Mostly Cloudy
11:35 AM 82.4 °F 84.6 °F 66.2 °F 58% 30.17 in 10.0 mi SSE 12.7 mph 18.4 mph N/A   Scattered Clouds
11:55 AM 83.7 °F 85.8 °F 66.0 °F 55% 30.16 in 10.0 mi SE 11.5 mph - N/A   Scattered Clouds
12:15 PM 83.7 °F 85.5 °F 65.5 °F 54% 30.16 in 10.0 mi South 6.9 mph 16.1 mph N/A   Mostly Cloudy
12:35 PM 84.0 °F 85.6 °F 64.8 °F 52% 30.15 in 10.0 mi SSE 9.2 mph - N/A   Mostly Cloudy
12:55 PM 86.2 °F 87.6 °F 64.2 °F 48% 30.15 in 10.0 mi SSE 11.5 mph - N/A   Scattered Clouds
1:15 PM 86.4 °F 87.6 °F 64.0 °F 47% 30.14 in 10.0 mi SSE 10.4 mph - N/A   Mostly Cloudy
1:35 PM 85.5 °F 86.1 °F 62.8 °F 46% 30.14 in 10.0 mi SSE 8.1 mph - N/A   Mostly Cloudy
1:55 PM 86.7 °F 87.0 °F 61.5 °F 43% 30.12 in 10.0 mi SSE 6.9 mph 18.4 mph N/A   Mostly Cloudy
2:15 PM 88.7 °F 89.1 °F 62.2 °F 41% 30.11 in 10.0 mi SE 5.8 mph - N/A   Scattered Clouds
2:35 PM 89.2 °F 88.4 °F 59.2 °F 36% 30.11 in 10.0 mi SE 10.4 mph 18.4 mph N/A   Scattered Clouds
2:55 PM 90.7 °F 89.8 °F 58.5 °F 34% 30.09 in 10.0 mi SE 9.2 mph - N/A   Mostly Cloudy
3:15 PM 89.8 °F 88.9 °F 58.6 °F 35% 30.08 in 10.0 mi SE 12.7 mph 16.1 mph N/A   Mostly Cloudy
3:35 PM 89.8 °F 88.4 °F 57.0 °F 33% 30.08 in 10.0 mi ESE 12.7 mph 18.4 mph N/A   Scattered Clouds
3:55 PM 91.9 °F 90.3 °F 56.7 °F 30% 30.07 in 10.0 mi SSE 12.7 mph 19.6 mph N/A   Scattered Clouds
4:15 PM 92.1 °F 90.0 °F 55.0 °F 28% 30.06 in 10.0 mi ESE 10.4 mph 19.6 mph N/A   Scattered Clouds
4:35 PM 90.7 °F 88.5 °F 54.5 °F 29% 30.06 in 10.0 mi ESE 9.2 mph - N/A   Scattered Clouds
4:55 PM 92.7 °F 90.1 °F 53.2 °F 26% 30.06 in 10.0 mi ESE 16.1 mph 20.7 mph N/A   Scattered Clouds
5:15 PM 92.7 °F 90.4 °F 53.6 °F 27% 30.05 in 10.0 mi ESE 12.7 mph 20.7 mph N/A   Clear
5:35 PM 91.9 °F - 52.7 °F 26% 30.05 in 10.0 mi ESE 13.8 mph 19.6 mph N/A   Clear
5:55 PM 91.0 °F - 51.4 °F 26% 30.05 in 10.0 mi SE 13.8 mph 19.6 mph N/A   Clear
6:15 PM 91.6 °F - 50.2 °F 24% 30.04 in 10.0 mi SE 12.7 mph 19.6 mph N/A   Clear
6:35 PM 91.2 °F - 50.9 °F 25% 30.04 in 10.0 mi SSE 13.8 mph 18.4 mph N/A   Clear
6:55 PM 90.3 °F - 50.7 °F 26% 30.04 in 10.0 mi SE 12.7 mph - N/A   Clear
7:15 PM 89.2 °F - 49.1 °F 25% 30.04 in 10.0 mi SE 12.7 mph - N/A   Clear
7:35 PM 87.8 °F - 51.6 °F 29% 30.05 in 10.0 mi ESE 9.2 mph - N/A   Clear
7:55 PM 85.1 °F - 51.8 °F 32% 30.05 in 10.0 mi ESE 6.9 mph - N/A   Clear
8:15 PM 83.3 °F - 51.3 °F 33% 30.06 in 10.0 mi ESE 5.8 mph - N/A   Clear
8:35 PM 81.5 °F - 51.8 °F 36% 30.06 in 10.0 mi ESE 5.8 mph - N/A   Clear
8:55 PM 79.9 °F - 52.5 °F 39% 30.07 in 10.0 mi ESE 4.6 mph - N/A   Clear
9:15 PM 78.8 °F - 52.7 °F 40% 30.08 in 10.0 mi SE 3.5 mph - N/A   Clear
9:35 PM 77.0 °F - 52.7 °F 43% 30.08 in 10.0 mi ESE 3.5 mph - N/A   Clear
9:55 PM 77.0 °F - 53.1 °F 43% 30.09 in 10.0 mi Calm Calm - N/A   Clear
10:15 PM 76.3 °F - 54.0 °F 46% 30.09 in 10.0 mi ESE 3.5 mph - N/A   Clear
10:35 PM 76.5 °F - 54.1 °F 46% 30.09 in 10.0 mi SE 3.5 mph - N/A   Clear
10:55 PM 75.6 °F - 54.5 °F 48% 30.09 in 10.0 mi Calm Calm - N/A   Clear
11:15 PM 75.2 °F - 54.7 °F 49% 30.09 in 10.0 mi Calm Calm - N/A   Clear
11:35 PM 75.4 °F - 55.8 °F 50% 30.09 in 10.0 mi Calm Calm - N/A   Clear
11:55 PM 75.6 °F - 56.3 °F 51% 30.09 in 10.0 mi Calm Calm - N/A   Clear